Weather History for Franklin, VA

Change the Weather History Date:

Friday, February 1, 2013

  Actual Average (KSFQ) Record (KSFQ)
Temperature  
Mean Temperature 34 °F -  
Max Temperature 42 °F 51 °F 82 °F (2002)
Min Temperature 26 °F 30 °F 9 °F (1965)
Degree Days  
Heating Degree Days 31    
Moisture  
Dew Point 14 °F    
Average Humidity 44    
Maximum Humidity 75    
Minimum Humidity 24    
Precipitation  
Precipitation 0.00 in - - ()
Sea Level Pressure  
Sea Level Pressure 30.13 in    
Wind  
Wind Speed 10 mph (West)    
Max Wind Speed 26 mph    
Max Gust Speed 40 mph    
Visibility 10 miles    
Events      
Averages and records for this station are not official NWS values.
T = Trace of Precipitation, MM = Missing Value Source: NWS Daily Summary

Daily Weather History Graph

Daily Weather History Graph

Search for Another Location

Airport:

Trip Planner

Search our weather history database for the weather conditions in past years. The results will help you decide how hot, cold, wet, or windy it might be!

Date:

Astronomy

Feb. 01, 2013 Rise Set
Actual Time 7:09 AM EST 5:33 PM EST
Civil Twilight 6:42 AM EST 6:00 PM EST
Nautical Twilight 6:11 AM EST 6:31 PM EST
Astronomical Twilight 5:40 AM EST 7:02 PM EST
Moon 11:27 PM EST (2/1) 9:51 AM EST (2/1)
Length of Visible Light 11h 18m
Length of Day
10h 24m
Waning Gibbous, 70% of the Moon is Illuminated
Feb 1
Waning Gibbous
Feb 3
Last Quarter
Feb 10
New
Feb 17
First Quarter
Feb 25
Full

Hourly Weather History & Observations

Time (EST) Temp. Windchill Dew Point Humidity Pressure Visibility Wind Dir Wind Speed Gust Speed Precip Events Conditions
12:15 AM 37.4 °F 34.9 °F 21.2 °F 52% 30.00 in 10.0 mi SSW 3.5 mph - N/A   Clear
12:35 AM 37.4 °F 34.9 °F 21.2 °F 52% 30.00 in 10.0 mi SW 3.5 mph - N/A   Clear
12:55 AM 35.6 °F - 21.2 °F 56% 29.99 in 10.0 mi Calm Calm - N/A   Clear
1:15 AM 35.6 °F 31.7 °F 21.2 °F 56% 30.00 in 10.0 mi SW 4.6 mph - N/A   Clear
1:35 AM 35.6 °F 32.8 °F 21.2 °F 56% 30.00 in 10.0 mi SW 3.5 mph - N/A   Clear
1:55 AM 33.8 °F 29.6 °F 24.8 °F 70% 29.99 in 10.0 mi South 4.6 mph - N/A   Clear
2:15 AM 33.8 °F 30.8 °F 24.8 °F 70% 29.98 in 10.0 mi South 3.5 mph - N/A   Clear
2:35 AM 33.8 °F 28.6 °F 24.8 °F 70% 29.97 in 10.0 mi South 5.8 mph - N/A   Clear
2:55 AM 33.8 °F 27.7 °F 26.6 °F 75% 29.96 in 10.0 mi South 6.9 mph - N/A   Clear
3:15 AM 33.8 °F 27.0 °F 24.8 °F 70% 29.94 in 10.0 mi South 8.1 mph - N/A   Clear
3:35 AM 35.6 °F 29.2 °F 24.8 °F 65% 29.92 in 10.0 mi South 8.1 mph - N/A   Clear
3:55 AM 35.6 °F 29.2 °F 24.8 °F 65% 29.90 in 10.0 mi South 8.1 mph - N/A   Clear
4:15 AM 35.6 °F 29.2 °F 24.8 °F 65% 29.89 in 10.0 mi South 8.1 mph - N/A   Clear
4:35 AM 35.6 °F 28.6 °F 24.8 °F 65% 29.89 in 10.0 mi South 9.2 mph - N/A   Clear
4:55 AM 37.4 °F 30.3 °F 24.8 °F 60% 29.88 in 10.0 mi South 10.4 mph - N/A   Clear
5:15 AM 37.4 °F 29.8 °F 26.6 °F 65% 29.88 in 10.0 mi SSW 11.5 mph - N/A   Clear
5:35 AM 37.4 °F 31.4 °F 26.6 °F 65% 29.86 in 10.0 mi SSW 8.1 mph - N/A   Mostly Cloudy
5:55 AM 39.2 °F 32.0 °F 26.6 °F 61% 29.85 in 10.0 mi SSW 11.5 mph - N/A   Mostly Cloudy
6:15 AM 39.2 °F 30.8 °F 26.6 °F 61% 29.87 in 10.0 mi SW 15.0 mph 20.7 mph N/A   Scattered Clouds
6:35 AM 39.2 °F 32.0 °F 26.6 °F 61% 29.88 in 10.0 mi WSW 11.5 mph 18.4 mph N/A   Scattered Clouds
7:15 AM 39.2 °F 33.0 °F 26.6 °F 61% 29.89 in 10.0 mi SW 9.2 mph - N/A   Mostly Cloudy
7:35 AM 39.2 °F 33.0 °F 26.6 °F 61% 29.91 in 10.0 mi WSW 9.2 mph - N/A   Scattered Clouds
7:55 AM 41.0 °F 34.7 °F 28.4 °F 61% 29.93 in 10.0 mi West 10.4 mph - N/A   Scattered Clouds
8:15 AM 42.8 °F 33.8 °F 28.4 °F 57% 29.96 in 10.0 mi West 21.9 mph 27.6 mph N/A   Overcast
8:35 AM 41.0 °F 31.6 °F 28.4 °F 61% 29.98 in 10.0 mi WNW 20.7 mph 29.9 mph N/A   Overcast
8:55 AM 41.0 °F 31.6 °F 26.6 °F 57% 30.00 in 10.0 mi WNW 20.7 mph 32.2 mph N/A   Overcast
9:15 AM 39.2 °F 28.5 °F 19.4 °F 45% 30.02 in 10.0 mi WNW 24.2 mph 40.3 mph N/A   Overcast
9:35 AM 39.2 °F 28.0 °F 10.4 °F 31% 30.04 in 10.0 mi WNW 26.5 mph 36.8 mph N/A   Overcast
9:55 AM 37.4 °F 27.5 °F 12.2 °F 36% 30.05 in 10.0 mi West 18.4 mph 32.2 mph N/A   Mostly Cloudy
10:15 AM 39.2 °F 28.5 °F 12.2 °F 33% 30.07 in 10.0 mi NW 24.2 mph 31.1 mph N/A   Scattered Clouds
10:35 AM 37.4 °F 26.6 °F 6.8 °F 28% 30.10 in 10.0 mi West 21.9 mph 39.1 mph N/A   Scattered Clouds
10:55 AM 37.4 °F 27.2 °F 6.8 °F 28% 30.10 in 10.0 mi West 19.6 mph 34.5 mph N/A   Clear
11:15 AM 37.4 °F 26.1 °F 6.8 °F 28% 30.11 in 10.0 mi WNW 24.2 mph 34.5 mph N/A   Clear
11:35 AM 37.4 °F 26.1 °F 6.8 °F 28% 30.13 in 10.0 mi WNW 24.2 mph 32.2 mph N/A   Clear
11:55 AM 37.4 °F 26.9 °F 6.8 °F 28% 30.14 in 10.0 mi NW 20.7 mph 28.8 mph N/A   Clear
12:15 PM 39.2 °F 28.0 °F 6.8 °F 26% 30.14 in 10.0 mi WNW 26.5 mph 33.4 mph N/A   Clear
12:35 PM 37.4 °F 27.8 °F 6.8 °F 28% 30.14 in 10.0 mi WNW 17.3 mph 34.5 mph N/A   Clear
12:55 PM 37.4 °F 27.5 °F 6.8 °F 28% 30.15 in 10.0 mi NW 18.4 mph 28.8 mph N/A   Clear
1:15 PM 37.4 °F 28.2 °F 5.0 °F 26% 30.15 in 10.0 mi NW 16.1 mph 35.7 mph N/A   Clear
1:35 PM 37.4 °F 26.9 °F 5.0 °F 26% 30.16 in 10.0 mi WNW 20.7 mph 31.1 mph N/A   Clear
1:55 PM 37.4 °F 28.2 °F 5.0 °F 26% 30.16 in 10.0 mi WNW 16.1 mph 25.3 mph N/A   Clear
2:15 PM 37.4 °F 29.3 °F 5.0 °F 26% 30.16 in 10.0 mi NW 12.7 mph 25.3 mph N/A   Clear
2:35 PM 37.4 °F 28.5 °F 3.2 °F 24% 30.17 in 10.0 mi West 15.0 mph 29.9 mph N/A   Clear
2:55 PM 37.4 °F 27.2 °F 3.2 °F 24% 30.18 in 10.0 mi WNW 19.6 mph 33.4 mph N/A   Clear
3:15 PM 37.4 °F 29.3 °F 5.0 °F 26% 30.19 in 10.0 mi NW 12.7 mph 26.5 mph N/A   Clear
3:35 PM 37.4 °F 28.9 °F 3.2 °F 24% 30.21 in 10.0 mi WNW 13.8 mph 26.5 mph N/A   Clear
3:55 PM 37.4 °F 27.8 °F 3.2 °F 24% 30.22 in 10.0 mi WNW 17.3 mph 24.2 mph N/A   Clear
4:15 PM 35.6 °F 26.2 °F 5.0 °F 28% 30.23 in 10.0 mi West 15.0 mph 26.5 mph N/A   Clear
4:35 PM 35.6 °F 24.8 °F 3.2 °F 26% 30.24 in 10.0 mi WNW 19.6 mph 25.3 mph N/A   Clear
4:55 PM 35.6 °F 27.1 °F 1.4 °F 24% 30.25 in 10.0 mi WNW 12.7 mph 24.2 mph N/A   Clear
5:15 PM 33.8 °F 27.7 °F 3.2 °F 28% 30.26 in 10.0 mi NW 6.9 mph - N/A   Clear
5:35 PM 33.8 °F 25.8 °F 3.2 °F 28% 30.28 in 10.0 mi WNW 10.4 mph 16.1 mph N/A   Clear
5:55 PM 32.0 °F 27.5 °F 3.2 °F 30% 30.28 in 10.0 mi NW 4.6 mph - N/A   Clear
6:15 PM 30.2 °F 25.4 °F 5.0 °F 34% 30.29 in 10.0 mi WNW 4.6 mph - N/A   Clear
6:35 PM 30.2 °F 26.7 °F 6.8 °F 37% 30.29 in 10.0 mi West 3.5 mph - N/A   Clear
6:55 PM 30.2 °F - 5.0 °F 34% 30.31 in 10.0 mi Calm Calm - N/A   Clear
7:15 PM 28.4 °F 23.3 °F 6.8 °F 40% 30.32 in 10.0 mi WNW 4.6 mph - N/A   Clear
7:35 PM 28.4 °F 23.3 °F 6.8 °F 40% 30.33 in 10.0 mi WNW 4.6 mph - N/A   Clear
7:55 PM 28.4 °F 21.2 °F 8.6 °F 43% 30.33 in 10.0 mi West 6.9 mph - N/A   Clear
8:15 PM 28.4 °F 21.2 °F 8.6 °F 43% 30.34 in 10.0 mi West 6.9 mph - N/A   Clear
8:35 PM 28.4 °F 23.3 °F 6.8 °F 40% 30.35 in 10.0 mi WNW 4.6 mph - N/A   Clear
8:55 PM 28.4 °F 20.4 °F 8.6 °F 43% 30.35 in 10.0 mi WNW 8.1 mph - N/A   Clear
9:15 PM 28.4 °F 21.2 °F 8.6 °F 43% 30.36 in 10.0 mi WNW 6.9 mph - N/A   Clear
9:35 PM 28.4 °F 20.4 °F 8.6 °F 43% 30.36 in 10.0 mi WNW 8.1 mph - N/A   Clear
9:55 PM 28.4 °F 20.4 °F 8.6 °F 43% 30.38 in 10.0 mi West 8.1 mph - N/A   Clear
10:15 PM 28.4 °F 19.7 °F 8.6 °F 43% 30.38 in 10.0 mi West 9.2 mph - N/A   Clear
10:35 PM 26.6 °F 19.1 °F 8.6 °F 47% 30.39 in 10.0 mi WNW 6.9 mph - N/A   Clear
10:55 PM 26.6 °F 20.0 °F 8.6 °F 47% 30.39 in 10.0 mi WNW 5.8 mph - N/A   Clear
11:15 PM 26.6 °F 20.0 °F 8.6 °F 47% 30.39 in 10.0 mi WNW 5.8 mph - N/A   Clear
11:35 PM 26.6 °F 22.6 °F 8.6 °F 47% 30.40 in 10.0 mi WNW 3.5 mph - N/A   Clear
11:55 PM 26.6 °F 19.1 °F 8.6 °F 47% 30.40 in 10.0 mi WNW 6.9 mph - N/A   Clear